Вернуться в каталог

FREGAT DEB

АктивенUNKNOWN
NORAD 52959·DEBRIS·🇷🇺 Russia

Запущен Jul 18, 2011 с Baikonur Cosmodrome

Loading…

Ближайшие Пролёты (ближайшие 24 часа)

TLE

СвежийSource: Space-Track

Эпоха: Sep 13, 2026, 22:14 UTC

1 52959U 11037PN  26256.92651931  .00009248  00000-0  17672-2 0  9997
2 52959  51.4797  91.7544 1434370 190.5812 166.1551 12.23558789  4046

Отслеживайте FREGAT DEB в реальном времени с AllMySat

Download on the App Store